Year,Month,Day,Hour,Minute,Value (Times are PST for temperature in C)
2014,04,15,00,00,11.10
2014,04,15,00,01,11.00
2014,04,15,00,02,11.00
2014,04,15,00,03,11.00
2014,04,15,00,04,11.10
2014,04,15,00,05,11.10
2014,04,15,00,06,11.10
2014,04,15,00,07,11.10
2014,04,15,00,08,11.10
2014,04,15,00,09,11.20
2014,04,15,00,10,11.20
2014,04,15,00,11,11.20
2014,04,15,00,12,11.20
2014,04,15,00,13,11.20
2014,04,15,00,14,11.20
2014,04,15,00,15,11.20
2014,04,15,00,16,11.20
2014,04,15,00,17,11.10
2014,04,15,00,18,11.10
2014,04,15,00,19,11.10
2014,04,15,00,20,11.10
2014,04,15,00,21,11.10
2014,04,15,00,22,11.10
2014,04,15,00,23,11.10
2014,04,15,00,24,11.00
2014,04,15,00,25,11.00
2014,04,15,00,26,11.00
2014,04,15,00,27,11.00
2014,04,15,00,28,10.90
2014,04,15,00,29,10.90
2014,04,15,00,30,10.90
2014,04,15,00,31,10.90
2014,04,15,00,32,10.90
2014,04,15,00,33,10.90
2014,04,15,00,34,10.90
2014,04,15,00,35,10.80
2014,04,15,00,36,10.80
2014,04,15,00,37,10.80
2014,04,15,00,38,10.80
2014,04,15,00,39,10.80
2014,04,15,00,40,10.70
2014,04,15,00,41,10.70
2014,04,15,00,42,10.70
2014,04,15,00,43,10.70
2014,04,15,00,44,10.70
2014,04,15,00,45,10.70
2014,04,15,00,46,10.60
2014,04,15,00,47,10.60
2014,04,15,00,48,10.60
2014,04,15,00,49,10.50
2014,04,15,00,50,10.50
2014,04,15,00,51,10.40
2014,04,15,00,52,10.40
2014,04,15,00,53,10.30
2014,04,15,00,54,10.30
2014,04,15,00,55,10.30
2014,04,15,00,56,10.20
2014,04,15,00,57,10.20
2014,04,15,00,58,10.20
2014,04,15,00,59,10.10
2014,04,15,01,00,10.10
2014,04,15,01,01,10.10
2014,04,15,01,02,10.00
2014,04,15,01,03,10.00
2014,04,15,01,04,10.00
2014,04,15,01,05,10.00
2014,04,15,01,06,10.00
2014,04,15,01,07,9.90
2014,04,15,01,08,9.90
2014,04,15,01,09,9.90
2014,04,15,01,10,9.90
2014,04,15,01,11,9.90
2014,04,15,01,12,9.90
2014,04,15,01,13,9.90
2014,04,15,01,14,9.80
2014,04,15,01,15,9.80
2014,04,15,01,16,9.80
2014,04,15,01,17,9.80
2014,04,15,01,18,9.80
2014,04,15,01,19,9.80
2014,04,15,01,20,9.80
2014,04,15,01,21,9.80
2014,04,15,01,22,9.80
2014,04,15,01,23,9.80
2014,04,15,01,24,9.70
2014,04,15,01,25,9.70
2014,04,15,01,26,9.70
2014,04,15,01,27,9.70
2014,04,15,01,28,9.70
2014,04,15,01,29,9.70
2014,04,15,01,30,9.70
2014,04,15,01,31,9.70
2014,04,15,01,32,9.60
2014,04,15,01,33,9.60
2014,04,15,01,34,9.60
2014,04,15,01,35,9.60
2014,04,15,01,36,9.60
2014,04,15,01,37,9.50
2014,04,15,01,38,9.50
2014,04,15,01,39,9.50
2014,04,15,01,40,9.50
2014,04,15,01,41,9.50
2014,04,15,01,42,9.50
2014,04,15,01,43,9.50
2014,04,15,01,44,9.50
2014,04,15,01,45,9.40
2014,04,15,01,46,9.40
2014,04,15,01,47,9.40
2014,04,15,01,48,9.40
2014,04,15,01,49,9.40
2014,04,15,01,50,9.40
2014,04,15,01,51,9.40
2014,04,15,01,52,9.40
2014,04,15,01,53,9.40
2014,04,15,01,54,9.40
2014,04,15,01,55,9.30
2014,04,15,01,56,9.30
2014,04,15,01,57,9.30
2014,04,15,01,58,9.30
2014,04,15,01,59,9.30
2014,04,15,02,00,9.30
2014,04,15,02,01,9.30
2014,04,15,02,02,9.30
2014,04,15,02,03,9.30
2014,04,15,02,04,9.20
2014,04,15,02,05,9.20
2014,04,15,02,06,9.20
2014,04,15,02,07,9.20
2014,04,15,02,08,9.20
2014,04,15,02,09,9.20
2014,04,15,02,10,9.20
2014,04,15,02,11,9.20
2014,04,15,02,12,9.20
2014,04,15,02,13,9.20
2014,04,15,02,14,9.20
2014,04,15,02,15,9.20
2014,04,15,02,16,9.20
2014,04,15,02,17,9.20
2014,04,15,02,18,9.20
2014,04,15,02,19,9.20
2014,04,15,02,20,9.20
2014,04,15,02,21,9.20
2014,04,15,02,22,9.20
2014,04,15,02,23,9.20
2014,04,15,02,24,9.20
2014,04,15,02,25,9.20
2014,04,15,02,26,9.10
2014,04,15,02,27,9.10
2014,04,15,02,28,9.10
2014,04,15,02,29,9.00
2014,04,15,02,30,9.00
2014,04,15,02,31,9.00
2014,04,15,02,32,8.90
2014,04,15,02,33,8.90
2014,04,15,02,34,8.90
2014,04,15,02,35,8.90
2014,04,15,02,36,8.90
2014,04,15,02,37,8.90
2014,04,15,02,38,8.80
2014,04,15,02,39,8.80
2014,04,15,02,40,8.80
2014,04,15,02,41,8.80
2014,04,15,02,42,8.70
2014,04,15,02,43,8.70
2014,04,15,02,44,8.70
2014,04,15,02,45,8.60
2014,04,15,02,46,8.60
2014,04,15,02,47,8.50
2014,04,15,02,48,8.40
2014,04,15,02,49,8.40
2014,04,15,02,50,8.30
2014,04,15,02,51,8.30
2014,04,15,02,52,8.20
2014,04,15,02,53,8.20
2014,04,15,02,54,8.20
2014,04,15,02,55,8.10
2014,04,15,02,56,8.10
2014,04,15,02,57,8.10
2014,04,15,02,58,8.10
2014,04,15,02,59,8.10
2014,04,15,03,00,8.00
2014,04,15,03,01,8.00
2014,04,15,03,02,8.00
2014,04,15,03,06,7.90
2014,04,15,03,07,7.90
2014,04,15,03,08,7.90
2014,04,15,03,09,7.90
2014,04,15,03,10,7.90
2014,04,15,03,11,7.90
2014,04,15,03,12,7.90
2014,04,15,03,13,7.90
2014,04,15,03,14,7.90
2014,04,15,03,15,7.90
2014,04,15,03,16,7.90
2014,04,15,03,17,7.90
2014,04,15,03,18,7.90
2014,04,15,03,19,7.90
2014,04,15,03,20,7.90
2014,04,15,03,21,7.90
2014,04,15,03,22,7.90
2014,04,15,03,23,7.90
2014,04,15,03,24,7.90
2014,04,15,03,25,7.90
2014,04,15,03,26,7.90
2014,04,15,03,27,7.90
2014,04,15,03,28,7.90
2014,04,15,03,29,7.90
2014,04,15,03,30,7.90
2014,04,15,03,31,7.90
2014,04,15,03,32,7.90
2014,04,15,03,33,7.90
2014,04,15,03,34,7.90
2014,04,15,03,35,7.90
2014,04,15,03,36,7.90
2014,04,15,03,37,7.90
2014,04,15,03,38,7.90
2014,04,15,03,39,8.00
2014,04,15,03,40,8.00
2014,04,15,03,41,8.10
2014,04,15,03,42,8.10
2014,04,15,03,43,8.10
2014,04,15,03,44,8.10
2014,04,15,03,45,8.10
2014,04,15,03,46,8.10
2014,04,15,03,47,8.10
2014,04,15,03,48,8.10
2014,04,15,03,49,8.10
2014,04,15,03,50,8.10
2014,04,15,03,51,8.10
2014,04,15,03,52,8.10
2014,04,15,03,53,8.20
2014,04,15,03,54,8.20
2014,04,15,03,55,8.20
2014,04,15,03,56,8.20
2014,04,15,03,57,8.20
2014,04,15,03,58,8.20
2014,04,15,03,59,8.20
2014,04,15,04,00,8.10
2014,04,15,04,01,8.10
2014,04,15,04,02,8.10
2014,04,15,04,03,8.10
2014,04,15,04,04,8.10
2014,04,15,04,05,8.00
2014,04,15,04,06,8.00
2014,04,15,04,07,7.90
2014,04,15,04,08,7.90
2014,04,15,04,09,7.90
2014,04,15,04,10,7.80
2014,04,15,04,11,7.80
2014,04,15,04,12,7.80
2014,04,15,04,13,7.70
2014,04,15,04,14,7.70
2014,04,15,04,15,7.70
2014,04,15,04,16,7.70
2014,04,15,04,17,7.70
2014,04,15,04,18,7.60
2014,04,15,04,19,7.60
2014,04,15,04,20,7.60
2014,04,15,04,21,7.60
2014,04,15,04,22,7.60
2014,04,15,04,23,7.50
2014,04,15,04,24,7.50
2014,04,15,04,25,7.50
2014,04,15,04,26,7.50
2014,04,15,04,27,7.40
2014,04,15,04,28,7.40
2014,04,15,04,29,7.40
2014,04,15,04,30,7.40
2014,04,15,04,31,7.40
2014,04,15,04,32,7.30
2014,04,15,04,33,7.30
2014,04,15,04,34,7.30
2014,04,15,04,35,7.30
2014,04,15,04,36,7.30
2014,04,15,04,37,7.20
2014,04,15,04,38,7.20
2014,04,15,04,39,7.20
2014,04,15,04,40,7.20
2014,04,15,04,41,7.20
2014,04,15,04,42,7.10
2014,04,15,04,43,7.10
2014,04,15,04,44,7.10
2014,04,15,04,45,7.10
2014,04,15,04,46,7.10
2014,04,15,04,47,7.10
2014,04,15,04,48,7.10
2014,04,15,04,49,7.10
2014,04,15,04,50,7.10
2014,04,15,04,51,7.00
2014,04,15,04,52,7.00
2014,04,15,04,53,7.00
2014,04,15,04,54,6.90
2014,04,15,04,55,6.90
2014,04,15,04,56,6.90
2014,04,15,04,57,6.80
2014,04,15,04,58,6.80
2014,04,15,04,59,6.80
2014,04,15,05,00,6.80
2014,04,15,05,01,6.80
2014,04,15,05,02,6.80
2014,04,15,05,03,6.80
2014,04,15,05,04,6.70
2014,04,15,05,05,6.70
2014,04,15,05,06,6.70
2014,04,15,05,07,6.70
2014,04,15,05,08,6.70
2014,04,15,05,09,6.70
2014,04,15,05,10,6.70
2014,04,15,05,11,6.70
2014,04,15,05,12,6.70
2014,04,15,05,13,6.80
2014,04,15,05,14,6.80
2014,04,15,05,15,6.80
2014,04,15,05,16,6.80
2014,04,15,05,17,6.80
2014,04,15,05,18,6.80
2014,04,15,05,19,6.80
2014,04,15,05,20,6.80
2014,04,15,05,21,6.80
2014,04,15,05,22,6.80
2014,04,15,05,23,6.80
2014,04,15,05,24,6.80
2014,04,15,05,25,6.80
2014,04,15,05,26,6.80
2014,04,15,05,27,6.80
2014,04,15,05,28,6.80
2014,04,15,05,29,6.90
2014,04,15,05,30,6.90
2014,04,15,05,31,6.90
2014,04,15,05,32,6.90
2014,04,15,05,33,7.00
2014,04,15,05,34,7.00
2014,04,15,05,35,7.10
2014,04,15,05,36,7.10
2014,04,15,05,37,7.10
2014,04,15,05,38,7.20
2014,04,15,05,39,7.20
2014,04,15,05,40,7.20
2014,04,15,05,41,7.20
2014,04,15,05,42,7.20
2014,04,15,05,43,7.20
2014,04,15,05,44,7.20
2014,04,15,05,45,7.20
2014,04,15,05,46,7.20
2014,04,15,05,47,7.20
2014,04,15,05,48,7.20
2014,04,15,05,49,7.30
2014,04,15,05,50,7.30
2014,04,15,05,51,7.30
2014,04,15,05,52,7.30
2014,04,15,05,53,7.30
2014,04,15,05,54,7.30
2014,04,15,05,55,7.30
2014,04,15,05,56,7.30
2014,04,15,05,57,7.30
2014,04,15,05,58,7.30
2014,04,15,05,59,7.30
2014,04,15,06,00,7.30
2014,04,15,06,01,7.30
2014,04,15,06,02,7.30
2014,04,15,06,03,7.30
2014,04,15,06,04,7.30
2014,04,15,06,05,7.30
2014,04,15,06,06,7.30
2014,04,15,06,07,7.30
2014,04,15,06,08,7.30
2014,04,15,06,09,7.30
2014,04,15,06,10,7.30
2014,04,15,06,11,7.30
2014,04,15,06,12,7.30
2014,04,15,06,13,7.30
2014,04,15,06,14,7.30
2014,04,15,06,15,7.30
2014,04,15,06,16,7.30
2014,04,15,06,17,7.30
2014,04,15,06,18,7.30
2014,04,15,06,19,7.30
2014,04,15,06,20,7.30
2014,04,15,06,21,7.30
2014,04,15,06,22,7.30
2014,04,15,06,23,7.30
2014,04,15,06,24,7.30
2014,04,15,06,25,7.30
2014,04,15,06,26,7.30
2014,04,15,06,27,7.30
2014,04,15,06,28,7.30
2014,04,15,06,29,7.30
2014,04,15,06,30,7.30
2014,04,15,06,31,7.40
2014,04,15,06,32,7.40
2014,04,15,06,33,7.40
2014,04,15,06,34,7.40
2014,04,15,06,35,7.40
2014,04,15,06,36,7.40
2014,04,15,06,37,7.40
2014,04,15,06,38,7.40
2014,04,15,06,39,7.40
2014,04,15,06,40,7.40
2014,04,15,06,41,7.40
2014,04,15,06,42,7.50
2014,04,15,06,43,7.50
2014,04,15,06,44,7.50
2014,04,15,06,45,7.50
2014,04,15,06,46,7.60
2014,04,15,06,47,7.60
2014,04,15,06,48,7.60
2014,04,15,06,49,7.60
2014,04,15,06,50,7.60
2014,04,15,06,51,7.60
2014,04,15,06,52,7.70
2014,04,15,06,53,7.70
2014,04,15,06,54,7.70
2014,04,15,06,55,7.70
2014,04,15,06,56,7.70
2014,04,15,06,57,7.70
2014,04,15,06,58,7.80
2014,04,15,06,59,7.80
2014,04,15,07,00,7.90
2014,04,15,07,01,8.00
2014,04,15,07,02,8.00
2014,04,15,07,03,8.10
2014,04,15,07,04,8.20
2014,04,15,07,05,8.20
2014,04,15,07,06,8.30
2014,04,15,07,07,8.40
2014,04,15,07,08,8.50
2014,04,15,07,09,8.50
2014,04,15,07,10,8.60
2014,04,15,07,11,8.70
2014,04,15,07,12,8.80
2014,04,15,07,13,8.90
2014,04,15,07,14,9.00
2014,04,15,07,15,9.10
2014,04,15,07,16,9.20
2014,04,15,07,17,9.20
2014,04,15,07,18,9.30
2014,04,15,07,19,9.40
2014,04,15,07,20,9.50
2014,04,15,07,21,9.60
2014,04,15,07,22,9.60
2014,04,15,07,23,9.70
2014,04,15,07,24,9.80
2014,04,15,07,25,9.80
2014,04,15,07,26,9.80
2014,04,15,07,27,9.90
2014,04,15,07,28,9.90
2014,04,15,07,29,9.90
2014,04,15,07,30,10.00
2014,04,15,07,31,10.00
2014,04,15,07,32,10.00
2014,04,15,07,33,10.00
2014,04,15,07,34,10.10
2014,04,15,07,35,10.10
2014,04,15,07,36,10.10
2014,04,15,07,37,10.10
2014,04,15,07,38,10.10
2014,04,15,07,39,10.10
2014,04,15,07,40,10.20
2014,04,15,07,41,10.20
2014,04,15,07,42,10.20
2014,04,15,07,43,10.20
2014,04,15,07,44,10.30
2014,04,15,07,45,10.30
2014,04,15,07,46,10.30
2014,04,15,07,47,10.40
2014,04,15,07,48,10.50
2014,04,15,07,49,10.50
2014,04,15,07,50,10.60
2014,04,15,07,51,10.60
2014,04,15,07,52,10.70
2014,04,15,07,53,10.70
2014,04,15,07,54,10.80
2014,04,15,07,55,10.80
2014,04,15,07,56,10.80
2014,04,15,07,57,10.70
2014,04,15,07,58,10.70
2014,04,15,07,59,10.70
2014,04,15,08,00,10.70
2014,04,15,08,01,10.70
2014,04,15,08,02,10.70
2014,04,15,08,03,10.70
2014,04,15,08,04,10.60
2014,04,15,08,05,10.60
2014,04,15,08,06,10.60
2014,04,15,08,07,10.60
2014,04,15,08,08,10.50
2014,04,15,08,09,10.50
2014,04,15,08,10,10.50
2014,04,15,08,11,10.60
2014,04,15,08,12,10.60
2014,04,15,08,13,10.60
2014,04,15,08,14,10.60
2014,04,15,08,15,10.60
2014,04,15,08,16,10.60
2014,04,15,08,17,10.70
2014,04,15,08,18,10.70
2014,04,15,08,19,10.70
2014,04,15,08,20,10.80
2014,04,15,08,21,10.80
2014,04,15,08,22,10.90
2014,04,15,08,23,10.90
2014,04,15,08,24,11.00
2014,04,15,08,25,11.00
2014,04,15,08,26,11.10
2014,04,15,08,27,11.10
2014,04,15,08,28,11.10
2014,04,15,08,29,11.20
2014,04,15,08,30,11.20
2014,04,15,08,31,11.20
2014,04,15,08,32,11.10
2014,04,15,08,33,11.00
2014,04,15,08,34,11.00
2014,04,15,08,35,11.00
2014,04,15,08,36,11.10
2014,04,15,08,37,11.10
2014,04,15,08,38,11.10
2014,04,15,08,39,11.10
2014,04,15,08,40,11.10
2014,04,15,08,41,11.20
2014,04,15,08,42,11.20
2014,04,15,08,43,11.20
2014,04,15,08,44,11.20
2014,04,15,08,45,11.20
2014,04,15,08,46,11.20
2014,04,15,08,47,11.10
2014,04,15,08,48,11.10
2014,04,15,08,49,10.90
2014,04,15,08,50,10.80
2014,04,15,08,51,10.70
2014,04,15,08,52,10.70
2014,04,15,08,53,10.70
2014,04,15,08,54,10.60
2014,04,15,08,55,10.60
2014,04,15,08,56,10.60
2014,04,15,08,57,10.50
2014,04,15,08,58,10.50
2014,04,15,08,59,10.40
2014,04,15,09,00,10.40
2014,04,15,09,01,10.40
2014,04,15,09,02,10.40
2014,04,15,09,03,10.40
2014,04,15,09,04,10.50
2014,04,15,09,05,10.50
2014,04,15,09,06,10.60
2014,04,15,09,07,10.50
2014,04,15,09,08,10.50
2014,04,15,09,09,10.50
2014,04,15,09,10,10.50
2014,04,15,09,11,10.50
2014,04,15,09,12,10.60
2014,04,15,09,13,10.70
2014,04,15,09,14,10.70
2014,04,15,09,15,10.80
2014,04,15,09,16,10.90
2014,04,15,09,17,11.00
2014,04,15,09,18,11.00
2014,04,15,09,19,11.10
2014,04,15,09,20,11.20
2014,04,15,09,21,11.30
2014,04,15,09,22,11.30
2014,04,15,09,23,11.40
2014,04,15,09,24,11.50
2014,04,15,09,25,11.60
2014,04,15,09,26,11.70
2014,04,15,09,27,11.80
2014,04,15,09,28,11.80
2014,04,15,09,29,11.90
2014,04,15,09,30,12.00
2014,04,15,09,31,12.10
2014,04,15,09,32,12.10
2014,04,15,09,33,12.10
2014,04,15,09,34,12.00
2014,04,15,09,35,11.90
2014,04,15,09,36,11.80
2014,04,15,09,37,11.70
2014,04,15,09,38,11.70
2014,04,15,09,39,11.70
2014,04,15,09,40,11.70
2014,04,15,09,41,11.70
2014,04,15,09,42,11.70
2014,04,15,09,43,11.80
2014,04,15,09,44,11.80
2014,04,15,09,45,11.80
2014,04,15,09,46,11.80
2014,04,15,09,47,11.70
2014,04,15,09,48,11.50
2014,04,15,09,49,11.40
2014,04,15,09,50,11.20
2014,04,15,09,51,11.10
2014,04,15,09,52,11.00
2014,04,15,09,53,10.90
2014,04,15,09,54,10.80
2014,04,15,09,55,10.80
2014,04,15,09,56,10.80
2014,04,15,09,57,10.80
2014,04,15,09,58,10.80
2014,04,15,09,59,10.80
2014,04,15,10,00,10.80
2014,04,15,10,01,10.70
2014,04,15,10,02,10.70
2014,04,15,10,03,10.70
2014,04,15,10,04,10.70
2014,04,15,10,05,10.70
2014,04,15,10,06,10.70
2014,04,15,10,07,10.60
2014,04,15,10,08,10.60
2014,04,15,10,09,10.50
2014,04,15,10,10,10.50
2014,04,15,10,11,10.40
2014,04,15,10,12,10.40
2014,04,15,10,13,10.40
2014,04,15,10,14,10.40
2014,04,15,10,15,10.40
2014,04,15,10,16,10.40
2014,04,15,10,17,10.40
2014,04,15,10,18,10.40
2014,04,15,10,19,10.40
2014,04,15,10,20,10.40
2014,04,15,10,21,10.30
2014,04,15,10,22,10.30
2014,04,15,10,23,10.30
2014,04,15,10,24,10.40
2014,04,15,10,25,10.40
2014,04,15,10,26,10.40
2014,04,15,10,27,10.40
2014,04,15,10,28,10.30
2014,04,15,10,29,10.30
2014,04,15,10,30,10.30
2014,04,15,10,31,10.30
2014,04,15,10,32,10.30
2014,04,15,10,33,10.30
2014,04,15,10,34,10.30
2014,04,15,10,35,10.30
2014,04,15,10,36,10.30
2014,04,15,10,37,10.30
2014,04,15,10,38,10.30
2014,04,15,10,39,10.30
2014,04,15,10,40,10.20
2014,04,15,10,41,10.30
2014,04,15,10,42,10.30
2014,04,15,10,43,10.30
2014,04,15,10,44,10.30
2014,04,15,10,45,10.40
2014,04,15,10,46,10.40
2014,04,15,10,47,10.50
2014,04,15,10,48,10.50
2014,04,15,10,49,10.60
2014,04,15,10,50,10.60
2014,04,15,10,51,10.50
2014,04,15,10,52,10.50
2014,04,15,10,53,10.40
2014,04,15,10,54,10.40
2014,04,15,10,55,10.30
2014,04,15,10,56,10.40
2014,04,15,10,57,10.40
2014,04,15,10,58,10.50
2014,04,15,10,59,10.50
2014,04,15,11,00,10.50
2014,04,15,11,01,10.50
2014,04,15,11,02,10.50
2014,04,15,11,03,10.40
2014,04,15,11,04,10.40
2014,04,15,11,05,10.40
2014,04,15,11,06,10.40
2014,04,15,11,07,10.40
2014,04,15,11,08,10.40
2014,04,15,11,09,10.40
2014,04,15,11,10,10.40
2014,04,15,11,11,10.30
2014,04,15,11,12,10.30
2014,04,15,11,13,10.30
2014,04,15,11,14,10.30
2014,04,15,11,15,10.40
2014,04,15,11,16,10.50
2014,04,15,11,17,10.50
2014,04,15,11,18,10.60
2014,04,15,11,19,10.70
2014,04,15,11,20,10.80
2014,04,15,11,21,10.80
2014,04,15,11,22,10.90
2014,04,15,11,23,11.00
2014,04,15,11,24,11.10
2014,04,15,11,25,11.20
2014,04,15,11,26,11.20
2014,04,15,11,27,11.20
2014,04,15,11,28,11.10
2014,04,15,11,29,11.00
2014,04,15,11,30,10.90
2014,04,15,11,31,10.80
2014,04,15,11,32,10.80
2014,04,15,11,33,10.70
2014,04,15,11,34,10.70
2014,04,15,11,35,10.80
2014,04,15,11,36,10.80
2014,04,15,11,37,10.90
2014,04,15,11,38,11.10
2014,04,15,11,39,11.10
2014,04,15,11,40,11.20
2014,04,15,11,41,11.30
2014,04,15,11,42,11.40
2014,04,15,11,43,11.50
2014,04,15,11,44,11.60
2014,04,15,11,45,11.60
2014,04,15,11,46,11.70
2014,04,15,11,47,11.70
2014,04,15,11,48,11.80
2014,04,15,11,49,11.80
2014,04,15,11,50,11.80
2014,04,15,11,51,11.80
2014,04,15,11,52,11.80
2014,04,15,11,53,11.80
2014,04,15,11,54,11.80
2014,04,15,11,55,11.80
2014,04,15,11,56,11.90
2014,04,15,11,57,11.90
2014,04,15,11,58,11.80
2014,04,15,11,59,11.80
2014,04,15,12,00,11.80
2014,04,15,12,01,11.80
2014,04,15,12,02,11.70
2014,04,15,12,03,11.70
2014,04,15,12,04,11.60
2014,04,15,12,05,11.60
2014,04,15,12,06,11.60
2014,04,15,12,07,11.60
2014,04,15,12,08,11.60
2014,04,15,12,09,11.50
2014,04,15,12,10,11.50
2014,04,15,12,11,11.50
2014,04,15,12,12,11.50
2014,04,15,12,13,11.50
2014,04,15,12,14,11.50
2014,04,15,12,15,11.60
2014,04,15,12,16,11.60
2014,04,15,12,17,11.60
2014,04,15,12,18,11.70
2014,04,15,12,19,11.70
2014,04,15,12,20,11.70
2014,04,15,12,21,11.70
2014,04,15,12,22,11.70
2014,04,15,12,23,11.70
2014,04,15,12,24,11.80
2014,04,15,12,25,11.80
2014,04,15,12,26,11.80
2014,04,15,12,27,11.80
2014,04,15,12,28,11.90
2014,04,15,12,29,12.00
2014,04,15,12,30,12.00
2014,04,15,12,31,12.10
2014,04,15,12,32,12.10
2014,04,15,12,33,12.20
2014,04,15,12,34,12.20
2014,04,15,12,35,12.20
2014,04,15,12,36,12.10
2014,04,15,12,37,12.00
2014,04,15,12,38,12.00
2014,04,15,12,39,11.90
2014,04,15,12,40,11.90
2014,04,15,12,41,11.90
2014,04,15,12,42,11.90
2014,04,15,12,43,11.90
2014,04,15,12,44,11.90
2014,04,15,12,45,11.90
2014,04,15,12,46,11.90
2014,04,15,12,47,11.80
2014,04,15,12,48,11.80
2014,04,15,12,49,11.80
2014,04,15,12,50,11.70
2014,04,15,12,51,11.70
2014,04,15,12,52,11.70
2014,04,15,12,53,11.70
2014,04,15,12,54,11.70
2014,04,15,12,55,11.70
2014,04,15,12,56,11.70
2014,04,15,12,57,11.80
2014,04,15,12,58,11.80
2014,04,15,12,59,11.80
2014,04,15,13,00,11.80
2014,04,15,13,01,11.80
2014,04,15,13,02,11.80
2014,04,15,13,03,11.80
2014,04,15,13,04,11.80
2014,04,15,13,05,11.80
2014,04,15,13,06,11.70
2014,04,15,13,07,11.70
2014,04,15,13,08,11.80
2014,04,15,13,09,11.80
2014,04,15,13,10,11.80
2014,04,15,13,11,11.80
2014,04,15,13,12,11.80
2014,04,15,13,13,11.80
2014,04,15,13,14,11.80
2014,04,15,13,15,11.80
2014,04,15,13,16,11.90
2014,04,15,13,17,11.90
2014,04,15,13,18,11.90
2014,04,15,13,19,12.00
2014,04,15,13,20,12.00
2014,04,15,13,21,12.10
2014,04,15,13,22,12.10
2014,04,15,13,23,12.20
2014,04,15,13,24,12.20
2014,04,15,13,25,12.20
2014,04,15,13,26,12.20
2014,04,15,13,27,12.20
2014,04,15,13,28,12.20
2014,04,15,13,29,12.30
2014,04,15,13,30,12.30
2014,04,15,13,31,12.30
2014,04,15,13,32,12.30
2014,04,15,13,33,12.40
2014,04,15,13,34,12.40
2014,04,15,13,35,12.40
2014,04,15,13,36,12.40
2014,04,15,13,37,12.40
2014,04,15,13,38,12.40
2014,04,15,13,39,12.50
2014,04,15,13,40,12.50
2014,04,15,13,41,12.60
2014,04,15,13,42,12.60
2014,04,15,13,43,12.60
2014,04,15,13,44,12.60
2014,04,15,13,45,12.60
2014,04,15,13,46,12.60
2014,04,15,13,47,12.60
2014,04,15,13,48,12.70
2014,04,15,13,49,12.70
2014,04,15,13,50,12.70
2014,04,15,13,51,12.70
2014,04,15,13,52,12.70
2014,04,15,13,53,12.70
2014,04,15,13,54,12.70
2014,04,15,13,55,12.70
2014,04,15,13,56,12.80
2014,04,15,13,57,12.80
2014,04,15,13,58,12.80
2014,04,15,13,59,12.70
2014,04,15,14,00,12.70
2014,04,15,14,01,12.60
2014,04,15,14,02,12.60
2014,04,15,14,03,12.60
2014,04,15,14,04,12.60
2014,04,15,14,05,12.60
2014,04,15,14,06,12.60
2014,04,15,14,07,12.60
2014,04,15,14,08,12.60
2014,04,15,14,09,12.60
2014,04,15,14,10,12.70
2014,04,15,14,11,12.70
2014,04,15,14,12,12.70
2014,04,15,14,13,12.80
2014,04,15,14,14,12.80
2014,04,15,14,15,12.90
2014,04,15,14,16,12.90
2014,04,15,14,17,12.90
2014,04,15,14,18,13.00
2014,04,15,14,19,13.00
2014,04,15,14,20,13.00
2014,04,15,14,21,13.10
2014,04,15,14,22,13.10
2014,04,15,14,23,13.10
2014,04,15,14,24,13.20
2014,04,15,14,25,13.20
2014,04,15,14,26,13.20
2014,04,15,14,27,13.20
2014,04,15,14,28,13.30
2014,04,15,14,29,13.30
2014,04,15,14,30,13.40
2014,04,15,14,31,13.40
2014,04,15,14,32,13.50
2014,04,15,14,33,13.60
2014,04,15,14,34,13.70
2014,04,15,14,35,13.70
2014,04,15,14,36,13.70
2014,04,15,14,37,13.70
2014,04,15,14,38,13.70
2014,04,15,14,39,13.70
2014,04,15,14,40,13.60
2014,04,15,14,41,13.60
2014,04,15,14,42,13.60
2014,04,15,14,43,13.70
2014,04,15,14,44,13.70
2014,04,15,14,45,13.70
2014,04,15,14,46,13.80
2014,04,15,14,47,13.80
2014,04,15,14,48,13.80
2014,04,15,14,49,13.80
2014,04,15,14,50,13.80
2014,04,15,14,51,13.80
2014,04,15,14,52,13.90
2014,04,15,14,53,13.90
2014,04,15,14,54,13.90
2014,04,15,14,55,13.90
2014,04,15,14,56,13.90
2014,04,15,14,57,13.90
2014,04,15,14,58,13.90
2014,04,15,14,59,13.90
2014,04,15,15,00,14.00
2014,04,15,15,01,14.00
2014,04,15,15,02,13.90
2014,04,15,15,03,13.80
2014,04,15,15,04,13.80
2014,04,15,15,05,13.80
2014,04,15,15,06,13.80
2014,04,15,15,07,13.80
2014,04,15,15,08,13.90
2014,04,15,15,09,13.90
2014,04,15,15,10,13.80
2014,04,15,15,11,13.70
2014,04,15,15,12,13.50
2014,04,15,15,13,13.40
2014,04,15,15,14,13.20
2014,04,15,15,15,13.00
2014,04,15,15,16,12.90
2014,04,15,15,17,12.80
2014,04,15,15,18,12.80
2014,04,15,15,19,12.80
2014,04,15,15,20,12.80
2014,04,15,15,21,12.70
2014,04,15,15,22,12.70
2014,04,15,15,23,12.70
2014,04,15,15,24,12.80
2014,04,15,15,25,12.80
2014,04,15,15,26,12.90
2014,04,15,15,27,13.00
2014,04,15,15,28,12.90
2014,04,15,15,29,12.80
2014,04,15,15,30,12.70
2014,04,15,15,31,12.70
2014,04,15,15,32,12.60
2014,04,15,15,33,12.70
2014,04,15,15,34,12.70
2014,04,15,15,35,12.80
2014,04,15,15,36,12.80
2014,04,15,15,37,12.90
2014,04,15,15,38,13.00
2014,04,15,15,39,13.10
2014,04,15,15,40,13.20
2014,04,15,15,41,13.20
2014,04,15,15,42,13.30
2014,04,15,15,43,13.40
2014,04,15,15,44,13.40
2014,04,15,15,45,13.40
2014,04,15,15,46,13.50
2014,04,15,15,47,13.50
2014,04,15,15,48,13.60
2014,04,15,15,49,13.60
2014,04,15,15,50,13.60
2014,04,15,15,51,13.60
2014,04,15,15,52,13.60
2014,04,15,15,53,13.60
2014,04,15,15,54,13.60
2014,04,15,15,55,13.60
2014,04,15,15,56,13.60
2014,04,15,15,57,13.60
2014,04,15,15,58,13.60
2014,04,15,15,59,13.60
2014,04,15,16,00,13.60
2014,04,15,16,01,13.70
2014,04,15,16,02,13.70
2014,04,15,16,03,13.70
2014,04,15,16,04,13.70
2014,04,15,16,05,13.70
2014,04,15,16,06,13.70
2014,04,15,16,07,13.70
2014,04,15,16,08,13.70
2014,04,15,16,09,13.70
2014,04,15,16,10,13.60
2014,04,15,16,11,13.60
2014,04,15,16,12,13.40
2014,04,15,16,13,13.30
2014,04,15,16,14,13.20
2014,04,15,16,15,13.20
2014,04,15,16,16,13.20
2014,04,15,16,17,13.20
2014,04,15,16,18,13.30
2014,04,15,16,19,13.30
2014,04,15,16,20,13.30
2014,04,15,16,21,13.30
2014,04,15,16,22,13.40
2014,04,15,16,23,13.40
2014,04,15,16,24,13.40
2014,04,15,16,25,13.40
2014,04,15,16,26,13.20
2014,04,15,16,27,13.00
2014,04,15,16,28,12.90
2014,04,15,16,29,12.70
2014,04,15,16,30,12.60
2014,04,15,16,31,12.50
2014,04,15,16,32,12.50
2014,04,15,16,33,12.40
2014,04,15,16,34,12.20
2014,04,15,16,35,12.00
2014,04,15,16,36,11.90
2014,04,15,16,37,11.80
2014,04,15,16,38,11.80
2014,04,15,16,39,11.70
2014,04,15,16,40,11.70
2014,04,15,16,41,11.70
2014,04,15,16,42,11.70
2014,04,15,16,43,11.70
2014,04,15,16,44,11.70
2014,04,15,16,45,11.70
2014,04,15,16,46,11.70
2014,04,15,16,47,11.70
2014,04,15,16,48,11.60
2014,04,15,16,49,11.60
2014,04,15,16,50,11.60
2014,04,15,16,51,11.60
2014,04,15,16,52,11.50
2014,04,15,16,53,11.50
2014,04,15,16,54,11.50
2014,04,15,16,55,11.50
2014,04,15,16,56,11.50
2014,04,15,16,57,11.50
2014,04,15,16,58,11.60
2014,04,15,16,59,11.60
2014,04,15,17,00,11.60
2014,04,15,17,01,11.70
2014,04,15,17,02,11.70
2014,04,15,17,03,11.70
2014,04,15,17,04,11.70
2014,04,15,17,05,11.70
2014,04,15,17,06,11.60
2014,04,15,17,07,11.60
2014,04,15,17,08,11.60
2014,04,15,17,09,11.50
2014,04,15,17,10,11.50
2014,04,15,17,11,11.40
2014,04,15,17,12,11.30
2014,04,15,17,13,11.30
2014,04,15,17,14,11.30
2014,04,15,17,15,11.30
2014,04,15,17,16,11.30
2014,04,15,17,17,11.40
2014,04,15,17,18,11.40
2014,04,15,17,19,11.40
2014,04,15,17,20,11.40
2014,04,15,17,21,11.40
2014,04,15,17,22,11.40
2014,04,15,17,23,11.40
2014,04,15,17,24,11.40
2014,04,15,17,25,11.40
2014,04,15,17,26,11.30
2014,04,15,17,27,11.30
2014,04,15,17,28,11.30
2014,04,15,17,29,11.30
2014,04,15,17,30,11.30
2014,04,15,17,31,11.30
2014,04,15,17,32,11.30
2014,04,15,17,33,11.30
2014,04,15,17,34,11.30
2014,04,15,17,35,11.30
2014,04,15,17,36,11.30
2014,04,15,17,37,11.30
2014,04,15,17,38,11.30